STARLINK-11698, 64325

Orbit data source: Space-Track

STARLINK-11698, 64325 is a payload satellite owned by SpaceX/Seattle (US) in LEO that was launched on Tue, 10 Jun 2025 UTC via an FALCON 9 launch vehicle from the Air Force Eastern Test Range (AFETR). Payload-class satellites include a variety of spacecraft equipped with specific instruments for various scientific and technological missions. These include communications satellites like Starlink; space stations such as the ISS; scientific satellites like the Hubble; Earth observation satellites from companies like Planet Labs, Umbra, and HawkEye 360; GPS; miniature CubeSats for education and research; and military/defense satellites.

Loading next visibility...
Identifier
64325, 2025-124J
Orbit
LEO
Country
Flag of USUS
Related business
Manufacturer
SpaceX/Seattle
Mission
Operational Commercial Communications
Bus & Motor
STARLINK V2MD, Unknown motor
Mass
960 kg wet, ~910 kg dry
Launch date (UTC)
2025-06-10 (11 months ago)
Launch vehicle
FALCON 9
Launch site
Air Force Eastern Test Range (AFETR)
Object type
Payload
Rocket body
Debris
Shape & HBR
Box + 2 Pan, 18.1 m
Radar Cross Section
36.964 m², Large (>1 m²)

Expand to show TLE details & history
Last TLE update: 5 hours ago

TLE from 5 hours ago
0 STARLINK-11698
1 64325U 25124J   26120.11371189  .00186596  00000-0  14260-2 0  9996
2 64325  43.0006  79.1019 0001770 240.7663 119.3027 15.70828310 50929
Epoch: 2026-04-30T02:43Z
TLE epoch observation values (Epoch: 2026-04-30T02:43:44.707Z)
Latitude
-0.00006°
Longitude
-179.89942°
Altitude
356.883 km
Speed
7.697 km/s
True Right ascension
05h 16m 24s
True Declination
0° 00' 00"
Sunlit
Object was in daylight at epoch
Visualization orbit readout
Latitude
Unknown
Longitude
Unknown
Altitude
Unknown
Speed
Unknown
Apparent Right ascension
Unknown
Apparent Declination
Unknown
Sunlit
N/A
Visualization observer readout
Local Sidereal Time
15:38:33
Azimuth
Unknown
Elevation
Unknown
Doppler factor
Unknown
Orbital elements
Apogee altitude
359.702 km
Perigee altitude
357.318 km
Semi-major axis
6,736.647 km
Eccentricity
0.00018
Inclination
43.0006°
RAAN
79.1019°
Arg. of periapsis
240.7663°
True anomaly
119.32039°
Mean anomaly
119.3027°
Eccentric anomaly
119.31154°
Mean motion
3.92534 °/min
Orbital period
91.71 mins
BSTAR
0.001426
Loading maneuver chart data...
Computing Atmospheric mass density...
Loading historical data...
Loading historical data...
Loading historical data...
Loading historical data...
Loading historical data...
Loading historical data...
Loading historical data...

Documentation

Showing up to 5 results
|